SBI275 LGAV-LLBG

Flight info

Callsign SBI275
Flight time 1h 43m
Altitude 23000
Route KEA N132 TUXEM/N0449F350 UT514 PEXAN UM601 MADEX UN132 KUPIS UN134 VANZA DCT PIKOG L609 ZUKKO
Aircraft A321/M-SDE3FGHIRWY/LB1

Departure

Time 2026-05-05 04:25
Airport Athens Eleftherios Venizelos International Airport (LGAV)

Arrival

Time 2026-05-05 06:09
Airport Ben Gurion International Airport (LLBG)
Time Latitude Longitude Altitude Speed Heading
2026-05-05 03:59 37.93912 23.95137 283 ft 0 kts 302°
2026-05-05 04:12 37.93910 23.95140 281 ft 3 kts 302°
2026-05-05 04:12 37.93898 23.95165 286 ft 3 kts 301°
2026-05-05 04:12 37.93886 23.95191 284 ft 3 kts 297°
2026-05-05 04:12 37.93876 23.95217 283 ft 3 kts 286°
2026-05-05 04:13 37.93872 23.95244 283 ft 3 kts 270°
2026-05-05 04:13 37.93876 23.95266 287 ft 3 kts 211°
2026-05-05 04:13 37.93895 23.95270 286 ft 3 kts 172°
2026-05-05 04:13 37.93917 23.95268 284 ft 3 kts 200°
2026-05-05 04:14 37.93922 23.95271 284 ft 1 kts 212°
2026-05-05 04:16 37.93921 23.95270 280 ft 1 kts 212°
2026-05-05 04:16 37.93897 23.95251 280 ft 6 kts 213°
2026-05-05 04:16 37.93862 23.95219 282 ft 6 kts 215°
2026-05-05 04:17 37.93825 23.95186 281 ft 7 kts 216°
2026-05-05 04:17 37.93786 23.95149 281 ft 7 kts 218°
2026-05-05 04:17 37.93741 23.95122 281 ft 8 kts 185°
2026-05-05 04:17 37.93690 23.95144 282 ft 8 kts 163°
2026-05-05 04:18 37.93640 23.95127 282 ft 8 kts 210°
2026-05-05 04:18 37.93595 23.95086 282 ft 8 kts 217°
2026-05-05 04:18 37.93548 23.95041 283 ft 9 kts 217°
2026-05-05 04:18 37.93499 23.94994 283 ft 9 kts 217°
2026-05-05 04:19 37.93445 23.94948 284 ft 9 kts 197°
2026-05-05 04:19 37.93384 23.94975 284 ft 10 kts 155°
2026-05-05 04:19 37.93319 23.94964 284 ft 10 kts 211°
2026-05-05 04:19 37.93262 23.94911 288 ft 11 kts 218°
2026-05-05 04:20 37.93179 23.94832 289 ft 18 kts 217°
2026-05-05 04:20 37.93066 23.94725 287 ft 20 kts 217°
2026-05-05 04:20 37.92957 23.94620 288 ft 19 kts 217°
2026-05-05 04:20 37.92858 23.94527 292 ft 17 kts 216°
2026-05-05 04:21 37.92770 23.94444 293 ft 15 kts 216°
2026-05-05 04:21 37.92694 23.94370 294 ft 13 kts 217°
2026-05-05 04:21 37.92628 23.94307 295 ft 11 kts 217°
2026-05-05 04:21 37.92566 23.94298 297 ft 8 kts 158°
2026-05-05 04:22 37.92533 23.94335 296 ft 0 kts 128°
2026-05-05 04:23 37.92525 23.94348 295 ft 3 kts 128°
2026-05-05 04:23 37.92509 23.94375 293 ft 6 kts 128°
2026-05-05 04:24 37.92484 23.94430 294 ft 8 kts 93°
2026-05-05 04:24 37.92532 23.94500 292 ft 14 kts 38°
2026-05-05 04:24 37.92647 23.94607 291 ft 33 kts 38°
2026-05-05 04:25 37.93713 23.95616 278 ft 151 kts 37°
2026-05-05 04:25 37.94673 23.96511 360 ft 184 kts 36°
2026-05-05 04:25 37.95745 23.97534 730 ft 201 kts 36°
2026-05-05 04:25 37.96904 23.98649 1136 ft 215 kts 34°
2026-05-05 04:26 37.98109 23.99809 1463 ft 230 kts 36°
2026-05-05 04:26 37.99430 24.01080 1945 ft 241 kts 35°
2026-05-05 04:26 38.00760 24.02360 2779 ft 238 kts 35°
2026-05-05 04:26 38.02074 24.03629 3603 ft 236 kts 36°
2026-05-05 04:27 38.03379 24.04889 4357 ft 237 kts 36°
2026-05-05 04:27 38.04696 24.06156 5085 ft 238 kts 36°
2026-05-05 04:27 38.06015 24.07426 5819 ft 238 kts 35°
2026-05-05 04:27 38.07336 24.08702 6553 ft 239 kts 36°
2026-05-05 04:28 38.08487 24.10245 7195 ft 246 kts 56°
2026-05-05 04:28 38.09097 24.12308 7776 ft 259 kts 77°
2026-05-05 04:28 38.08975 24.14670 8140 ft 281 kts 103°
2026-05-05 04:28 38.08287 24.17030 8715 ft 289 kts 112°
2026-05-05 04:29 38.07131 24.19150 9329 ft 298 kts 131°
2026-05-05 04:29 38.05450 24.20734 9949 ft 307 kts 152°
2026-05-05 04:29 38.03421 24.21545 10425 ft 316 kts 170°
2026-05-05 04:29 38.01167 24.21961 10557 ft 336 kts 172°
2026-05-05 04:30 37.98780 24.22373 10678 ft 355 kts 172°
2026-05-05 04:30 37.96261 24.22804 10806 ft 373 kts 172°
2026-05-05 04:30 37.93647 24.23253 11112 ft 383 kts 172°
2026-05-05 04:30 37.91013 24.23709 11593 ft 387 kts 172°
2026-05-05 04:31 37.88325 24.24175 12105 ft 391 kts 173°
2026-05-05 04:31 37.85616 24.24644 12638 ft 394 kts 173°
2026-05-05 04:31 37.82891 24.25117 13138 ft 398 kts 173°
2026-05-05 04:31 37.80134 24.25596 13642 ft 401 kts 173°
2026-05-05 04:32 37.77358 24.26082 14105 ft 405 kts 173°
2026-05-05 04:32 37.74563 24.26574 14569 ft 406 kts 173°
2026-05-05 04:32 37.71757 24.27068 15052 ft 408 kts 173°
2026-05-05 04:32 37.68943 24.27564 15532 ft 409 kts 173°
2026-05-05 04:33 37.66123 24.28055 16006 ft 409 kts 173°
2026-05-05 04:33 37.63295 24.28541 16476 ft 411 kts 173°
2026-05-05 04:33 37.60488 24.29037 16924 ft 412 kts 170°
2026-05-05 04:33 37.57703 24.29966 17343 ft 413 kts 159°
2026-05-05 04:34 37.55108 24.31510 17757 ft 413 kts 148°
2026-05-05 04:34 37.52772 24.33610 18155 ft 413 kts 138°
2026-05-05 04:34 37.50697 24.36114 18535 ft 413 kts 134°
2026-05-05 04:34 37.48639 24.38669 18865 ft 415 kts 134°
2026-05-05 04:35 37.46597 24.41198 19167 ft 417 kts 134°
2026-05-05 04:35 37.44513 24.43776 19474 ft 419 kts 134°
2026-05-05 04:35 37.42428 24.46360 19781 ft 421 kts 134°
2026-05-05 04:35 37.40339 24.48952 20093 ft 423 kts 134°
2026-05-05 04:36 37.38228 24.51567 20416 ft 425 kts 134°
2026-05-05 04:36 37.36119 24.54174 20762 ft 426 kts 134°
2026-05-05 04:36 37.34025 24.56759 21081 ft 428 kts 134°
2026-05-05 04:36 37.31893 24.59389 21399 ft 430 kts 134°
2026-05-05 04:37 37.29749 24.62034 21720 ft 432 kts 134°
2026-05-05 04:37 37.27586 24.64700 22041 ft 435 kts 135°
2026-05-05 04:37 37.25413 24.67369 22365 ft 437 kts 135°
2026-05-05 04:37 37.23254 24.70018 22682 ft 439 kts 135°
2026-05-05 04:38 37.21062 24.72704 23001 ft 441 kts 135°
2026-05-05 04:38 37.18854 24.75410 23313 ft 444 kts 135°
2026-05-05 04:38 37.16638 24.78128 23621 ft 446 kts 135°
2026-05-05 04:38 37.14410 24.80863 23881 ft 448 kts 135°
2026-05-05 04:39 37.12204 24.83570 24138 ft 450 kts 135°
2026-05-05 04:39 37.09963 24.86313 24397 ft 451 kts 135°
2026-05-05 04:39 37.07704 24.89076 24656 ft 453 kts 135°
2026-05-05 04:39 37.05441 24.91840 24916 ft 455 kts 135°
2026-05-05 04:40 37.03170 24.94612 25170 ft 456 kts 135°
2026-05-05 04:40 37.00893 24.97389 25421 ft 458 kts 135°
2026-05-05 04:40 36.98603 25.00173 25676 ft 460 kts 135°
2026-05-05 04:40 36.96300 25.02970 25925 ft 462 kts 135°
2026-05-05 04:41 36.93915 25.05678 26152 ft 464 kts 141°
2026-05-05 04:41 36.91273 25.07913 26381 ft 466 kts 150°
2026-05-05 04:41 36.88336 25.09650 26629 ft 468 kts 160°
2026-05-05 04:41 36.85231 25.10940 26865 ft 469 kts 162°
2026-05-05 04:42 36.82110 25.12202 27096 ft 471 kts 162°
2026-05-05 04:42 36.78994 25.13472 27331 ft 472 kts 162°
2026-05-05 04:42 36.75931 25.14960 27531 ft 473 kts 153°
2026-05-05 04:42 36.73124 25.17122 27725 ft 474 kts 142°
2026-05-05 04:43 36.70696 25.19905 27907 ft 474 kts 130°
2026-05-05 04:43 36.68759 25.23151 28089 ft 474 kts 119°
2026-05-05 04:43 36.67310 25.26844 28254 ft 473 kts 108°
2026-05-05 04:43 36.66439 25.30794 28413 ft 471 kts 98°
2026-05-05 04:44 36.65798 25.34809 28560 ft 474 kts 104°
2026-05-05 04:44 36.64595 25.38634 28719 ft 477 kts 116°
2026-05-05 04:44 36.62877 25.42132 28924 ft 478 kts 125°
2026-05-05 04:44 36.60741 25.45306 29141 ft 478 kts 134°
2026-05-05 04:45 36.58361 25.48202 29349 ft 478 kts 135°
2026-05-05 04:45 36.55976 25.51104 29563 ft 478 kts 135°
2026-05-05 04:45 36.53625 25.53975 29784 ft 477 kts 135°
2026-05-05 04:45 36.51252 25.56867 30004 ft 477 kts 135°
2026-05-05 04:46 36.48881 25.59748 30203 ft 477 kts 135°
2026-05-05 04:46 36.46502 25.62631 30362 ft 477 kts 135°
2026-05-05 04:46 36.44120 25.65506 30506 ft 478 kts 135°
2026-05-05 04:46 36.41726 25.68388 30656 ft 479 kts 135°
2026-05-05 04:47 36.39328 25.71275 30809 ft 480 kts 135°
2026-05-05 04:47 36.36933 25.74161 30964 ft 480 kts 135°
2026-05-05 04:47 36.34547 25.77033 31121 ft 481 kts 135°
2026-05-05 04:47 36.32143 25.79925 31265 ft 482 kts 135°
2026-05-05 04:48 36.29738 25.82812 31422 ft 482 kts 135°
2026-05-05 04:48 36.27322 25.85709 31580 ft 483 kts 135°
2026-05-05 04:48 36.25034 25.88760 31727 ft 482 kts 127°
2026-05-05 04:48 36.23123 25.92164 31876 ft 481 kts 118°
2026-05-05 04:49 36.21617 25.95805 32025 ft 480 kts 113°
2026-05-05 04:49 36.20208 25.99554 32233 ft 479 kts 113°
2026-05-05 04:49 36.18794 26.03289 32421 ft 479 kts 113°
2026-05-05 04:49 36.17369 26.07039 32592 ft 479 kts 113°
2026-05-05 04:50 36.15951 26.10772 32758 ft 480 kts 113°
2026-05-05 04:50 36.14519 26.14533 32920 ft 480 kts 113°
2026-05-05 04:50 36.13111 26.18223 33072 ft 480 kts 113°
2026-05-05 04:50 36.11680 26.21966 33246 ft 481 kts 113°
2026-05-05 04:51 36.10247 26.25712 33363 ft 482 kts 113°
2026-05-05 04:51 36.08811 26.29472 33521 ft 483 kts 113°
2026-05-05 04:51 36.07374 26.33233 33656 ft 484 kts 113°
2026-05-05 04:51 36.05935 26.36992 33796 ft 485 kts 113°
2026-05-05 04:52 36.04485 26.40774 33927 ft 485 kts 113°
2026-05-05 04:52 36.03041 26.44539 34067 ft 486 kts 113°
2026-05-05 04:52 36.01593 26.48320 34188 ft 486 kts 113°
2026-05-05 04:53 35.98705 26.55826 34440 ft 487 kts 113°
2026-05-05 04:53 35.97252 26.59597 34657 ft 485 kts 114°
2026-05-05 04:53 35.95807 26.63346 34842 ft 483 kts 114°
2026-05-05 04:53 35.94363 26.67080 35005 ft 482 kts 114°
2026-05-05 04:54 35.93381 26.69612 35056 ft 482 kts 114°
2026-05-05 04:54 35.90499 26.77029 35072 ft 481 kts 114°
2026-05-05 04:55 35.87597 26.84496 35069 ft 481 kts 114°
2026-05-05 04:55 35.84710 26.91922 35062 ft 479 kts 114°
2026-05-05 04:56 35.81825 26.99280 35060 ft 479 kts 114°
2026-05-05 04:56 35.78916 27.06680 35062 ft 479 kts 114°
2026-05-05 04:57 35.76019 27.14075 35061 ft 479 kts 114°
2026-05-05 04:57 35.73125 27.21418 35065 ft 480 kts 114°
2026-05-05 04:58 35.70202 27.28820 35047 ft 481 kts 114°
2026-05-05 04:58 35.67263 27.36250 35040 ft 482 kts 114°
2026-05-05 04:59 35.64326 27.43663 35043 ft 482 kts 114°
2026-05-05 04:59 35.61397 27.51052 35051 ft 483 kts 114°
2026-05-05 05:00 35.58430 27.58494 35044 ft 484 kts 115°
2026-05-05 05:00 35.55473 27.65893 35042 ft 485 kts 114°
2026-05-05 05:01 35.52500 27.73330 35034 ft 485 kts 114°
2026-05-05 05:01 35.49513 27.80789 35041 ft 486 kts 114°
2026-05-05 05:02 35.46540 27.88189 35046 ft 486 kts 115°
2026-05-05 05:02 35.43540 27.95623 35050 ft 486 kts 115°
2026-05-05 05:03 35.40534 28.03065 35050 ft 486 kts 115°
2026-05-05 05:03 35.37529 28.10498 35049 ft 486 kts 115°
2026-05-05 05:04 35.34516 28.17927 35053 ft 486 kts 115°
2026-05-05 05:04 35.31520 28.25286 35050 ft 486 kts 115°
2026-05-05 05:05 35.28499 28.32698 35047 ft 486 kts 115°
2026-05-05 05:05 35.25945 28.40324 35054 ft 484 kts 107°
2026-05-05 05:06 35.23766 28.48128 35040 ft 485 kts 107°
2026-05-05 05:06 35.21571 28.55890 35034 ft 485 kts 107°
2026-05-05 05:07 35.19348 28.63710 35035 ft 486 kts 107°
2026-05-05 05:07 35.17122 28.71523 35032 ft 487 kts 107°
2026-05-05 05:08 35.14909 28.79299 35018 ft 487 kts 107°
2026-05-05 05:08 35.12670 28.87146 35019 ft 488 kts 107°
2026-05-05 05:09 35.10422 28.94986 35021 ft 488 kts 107°
2026-05-05 05:09 35.08187 29.02760 35029 ft 488 kts 107°
2026-05-05 05:10 35.05935 29.10603 35025 ft 488 kts 107°
2026-05-05 05:10 35.03671 29.18437 35021 ft 489 kts 107°
2026-05-05 05:11 35.01410 29.26208 35031 ft 489 kts 107°
2026-05-05 05:11 34.99129 29.34014 35025 ft 488 kts 108°
2026-05-05 05:12 34.96581 29.41726 35024 ft 489 kts 111°
2026-05-05 05:12 34.93810 29.49309 35020 ft 490 kts 112°
2026-05-05 05:13 34.91062 29.56849 35017 ft 489 kts 111°
2026-05-05 05:13 34.88361 29.64495 35011 ft 490 kts 111°
2026-05-05 05:14 34.85692 29.72123 35012 ft 490 kts 111°
2026-05-05 05:14 34.83010 29.79705 35010 ft 490 kts 111°
2026-05-05 05:15 34.80294 29.87325 35019 ft 491 kts 111°
2026-05-05 05:15 34.77571 29.94955 35010 ft 491 kts 111°
2026-05-05 05:16 34.74561 30.02429 35002 ft 494 kts 120°
2026-05-05 05:16 34.70956 30.09540 35003 ft 494 kts 120°
2026-05-05 05:17 34.67344 30.16614 34998 ft 495 kts 120°
2026-05-05 05:17 34.63716 30.23721 34974 ft 495 kts 121°
2026-05-05 05:18 34.60089 30.30834 34989 ft 495 kts 121°
2026-05-05 05:18 34.56445 30.37946 34994 ft 495 kts 121°
2026-05-05 05:19 34.52827 30.45014 35006 ft 496 kts 121°
2026-05-05 05:19 34.49180 30.52113 35004 ft 496 kts 121°
2026-05-05 05:20 34.45515 30.59234 35000 ft 496 kts 121°
2026-05-05 05:20 34.41877 30.66292 35002 ft 496 kts 121°
2026-05-05 05:21 34.38216 30.73373 35000 ft 496 kts 121°
2026-05-05 05:21 34.34546 30.80458 35005 ft 496 kts 122°
2026-05-05 05:22 34.30875 30.87536 35004 ft 496 kts 122°
2026-05-05 05:22 34.27213 30.94574 35004 ft 496 kts 122°
2026-05-05 05:23 34.23527 31.01640 35005 ft 496 kts 122°
2026-05-05 05:23 34.19871 31.08649 35010 ft 496 kts 122°
2026-05-05 05:24 34.16167 31.15735 35005 ft 496 kts 122°
2026-05-05 05:24 34.12468 31.22781 34999 ft 496 kts 122°
2026-05-05 05:25 34.08797 31.29782 35013 ft 496 kts 122°
2026-05-05 05:25 34.05105 31.36816 34998 ft 496 kts 123°
2026-05-05 05:26 34.01400 31.43853 34994 ft 496 kts 123°
2026-05-05 05:26 33.97701 31.50849 34993 ft 496 kts 123°
2026-05-05 05:27 33.93995 31.57836 34999 ft 496 kts 123°
2026-05-05 05:27 33.88421 31.68341 34998 ft 496 kts 123°
2026-05-05 05:28 33.84703 31.75347 34997 ft 496 kts 123°
2026-05-05 05:28 33.81000 31.82296 35003 ft 496 kts 124°
2026-05-05 05:29 33.77263 31.89294 35003 ft 496 kts 124°
2026-05-05 05:29 33.73538 31.96269 35002 ft 496 kts 124°
2026-05-05 05:30 33.69802 32.03241 34969 ft 496 kts 124°
2026-05-05 05:30 33.66086 32.10166 34975 ft 496 kts 125°
2026-05-05 05:31 33.62337 32.17138 34992 ft 497 kts 125°
2026-05-05 05:31 33.58580 32.24103 34989 ft 497 kts 125°
2026-05-05 05:32 33.54821 32.31068 34989 ft 497 kts 125°
2026-05-05 05:32 33.51062 32.38031 34988 ft 497 kts 125°
2026-05-05 05:33 33.47310 32.44953 34994 ft 497 kts 126°
2026-05-05 05:33 33.43531 32.51898 34996 ft 497 kts 126°
2026-05-05 05:34 33.39757 32.58839 34998 ft 497 kts 126°
2026-05-05 05:34 33.35974 32.65786 34998 ft 497 kts 126°
2026-05-05 05:35 33.32213 32.72672 34903 ft 497 kts 126°
2026-05-05 05:35 33.30323 32.76133 34670 ft 496 kts 126°
2026-05-05 05:35 33.28428 32.79597 34438 ft 496 kts 126°
2026-05-05 05:36 33.26530 32.83058 34207 ft 495 kts 126°
2026-05-05 05:36 33.24642 32.86503 33973 ft 495 kts 126°
2026-05-05 05:36 33.22778 32.89906 33702 ft 495 kts 126°
2026-05-05 05:36 33.20891 32.93343 33340 ft 495 kts 126°
2026-05-05 05:37 33.18989 32.96798 32262 ft 501 kts 126°
2026-05-05 05:37 33.17059 33.00299 31330 ft 504 kts 125°
2026-05-05 05:37 33.15126 33.03807 30317 ft 508 kts 124°
2026-05-05 05:37 33.13171 33.07351 29124 ft 512 kts 124°
2026-05-05 05:38 33.11225 33.10878 28560 ft 504 kts 124°
2026-05-05 05:38 33.09307 33.14351 27848 ft 499 kts 124°
2026-05-05 05:38 33.07402 33.17791 27183 ft 494 kts 125°
2026-05-05 05:38 33.05537 33.21154 26522 ft 491 kts 125°
2026-05-05 05:39 33.03666 33.24527 25868 ft 487 kts 125°
2026-05-05 05:39 33.01805 33.27878 25224 ft 483 kts 125°
2026-05-05 05:39 32.99951 33.31211 24580 ft 480 kts 124°
2026-05-05 05:39 32.98107 33.34524 23947 ft 477 kts 124°
2026-05-05 05:40 32.96278 33.37809 23261 ft 474 kts 124°
2026-05-05 05:40 32.94472 33.41065 22641 ft 468 kts 124°
2026-05-05 05:40 32.92689 33.44279 22076 ft 461 kts 124°
2026-05-05 05:40 32.90934 33.47432 21535 ft 454 kts 125°
2026-05-05 05:41 32.89203 33.50543 21008 ft 446 kts 125°
2026-05-05 05:41 32.88073 33.52571 20671 ft 440 kts 125°
2026-05-05 05:41 32.85851 33.56548 20036 ft 430 kts 125°
2026-05-05 05:41 32.84206 33.59485 19595 ft 422 kts 125°
2026-05-05 05:42 32.82541 33.62318 19180 ft 414 kts 131°
2026-05-05 05:42 32.81285 33.64017 18894 ft 408 kts 137°
2026-05-05 05:42 32.79332 33.66418 18484 ft 402 kts 137°
2026-05-05 05:42 32.77397 33.68804 18044 ft 399 kts 137°
2026-05-05 05:43 32.75476 33.71176 17621 ft 396 kts 137°
2026-05-05 05:43 32.73571 33.73530 17191 ft 393 kts 137°
2026-05-05 05:43 32.71681 33.75860 16769 ft 391 kts 137°
2026-05-05 05:43 32.69794 33.78185 16328 ft 388 kts 137°
2026-05-05 05:44 32.67927 33.80483 15903 ft 385 kts 137°
2026-05-05 05:44 32.66095 33.82740 15457 ft 382 kts 137°
2026-05-05 05:44 32.64253 33.85000 15016 ft 380 kts 137°
2026-05-05 05:44 32.62418 33.87245 14572 ft 377 kts 137°
2026-05-05 05:45 32.60599 33.89472 14133 ft 375 kts 137°
2026-05-05 05:45 32.58792 33.91685 13676 ft 372 kts 137°
2026-05-05 05:45 32.56997 33.93884 13208 ft 369 kts 137°
2026-05-05 05:45 32.55222 33.96063 12840 ft 371 kts 137°
2026-05-05 05:46 32.53398 33.98328 12606 ft 383 kts 136°
2026-05-05 05:46 32.51567 34.00622 12333 ft 383 kts 136°
2026-05-05 05:46 32.49742 34.02915 12053 ft 381 kts 136°
2026-05-05 05:46 32.47948 34.05172 11839 ft 369 kts 136°
2026-05-05 05:47 32.46238 34.07319 11719 ft 354 kts 136°
2026-05-05 05:47 32.44590 34.09407 11589 ft 341 kts 133°
2026-05-05 05:47 32.43262 34.11681 11419 ft 332 kts 120°
2026-05-05 05:47 32.42382 34.14181 11081 ft 328 kts 107°
2026-05-05 05:48 32.41888 34.16801 10694 ft 326 kts 102°
2026-05-05 05:48 32.41431 34.19414 10340 ft 322 kts 102°
2026-05-05 05:48 32.40969 34.21992 10015 ft 317 kts 102°
2026-05-05 05:48 32.40510 34.24525 9750 ft 313 kts 103°
2026-05-05 05:49 32.40053 34.27039 9495 ft 312 kts 102°
2026-05-05 05:49 32.39600 34.29542 9249 ft 310 kts 103°
2026-05-05 05:49 32.39150 34.32035 8984 ft 308 kts 102°
2026-05-05 05:49 32.38706 34.34499 8864 ft 307 kts 103°
2026-05-05 05:50 32.38259 34.36973 8757 ft 308 kts 103°
2026-05-05 05:50 32.37810 34.39450 8629 ft 307 kts 103°
2026-05-05 05:50 32.37363 34.41915 8509 ft 305 kts 103°
2026-05-05 05:50 32.36917 34.44373 8383 ft 305 kts 103°
2026-05-05 05:51 32.36473 34.46822 8252 ft 305 kts 103°
2026-05-05 05:51 32.35812 34.49148 8140 ft 299 kts 121°
2026-05-05 05:51 32.34565 34.51073 8019 ft 293 kts 141°
2026-05-05 05:51 32.32920 34.52367 7935 ft 274 kts 161°
2026-05-05 05:52 32.31166 34.52968 7872 ft 254 kts 178°
2026-05-05 05:52 32.29426 34.53218 7816 ft 250 kts 178°
2026-05-05 05:52 32.27703 34.53540 7767 ft 253 kts 167°
2026-05-05 05:52 32.26111 34.54452 7692 ft 259 kts 146°
2026-05-05 05:53 32.24855 34.56000 7637 ft 265 kts 125°
2026-05-05 05:53 32.24103 34.57987 7572 ft 268 kts 106°
2026-05-05 05:53 32.23853 34.60168 7518 ft 270 kts 89°
2026-05-05 05:53 32.24135 34.62350 7456 ft 268 kts 71°
2026-05-05 05:54 32.24912 34.64340 7411 ft 267 kts 59°
2026-05-05 05:54 32.25829 34.66265 7360 ft 269 kts 59°
2026-05-05 05:54 32.26728 34.68167 7294 ft 268 kts 59°
2026-05-05 05:54 32.27474 34.70181 7226 ft 269 kts 75°
2026-05-05 05:55 32.27699 34.72372 7167 ft 269 kts 94°
2026-05-05 05:55 32.27378 34.74535 7108 ft 265 kts 112°
2026-05-05 05:55 32.26666 34.76531 7051 ft 262 kts 117°
2026-05-05 05:55 32.25938 34.78511 6918 ft 263 kts 116°
2026-05-05 05:56 32.25276 34.80457 6769 ft 253 kts 110°
2026-05-05 05:56 32.24783 34.82419 6599 ft 246 kts 109°
2026-05-05 05:56 32.24294 34.84341 6427 ft 243 kts 109°
2026-05-05 05:56 32.23803 34.86245 6250 ft 242 kts 110°
2026-05-05 05:57 32.23307 34.88149 6065 ft 241 kts 110°
2026-05-05 05:57 32.22814 34.90034 5884 ft 240 kts 110°
2026-05-05 05:57 32.22327 34.91900 5710 ft 232 kts 109°
2026-05-05 05:57 32.21873 34.93647 5539 ft 219 kts 110°
2026-05-05 05:58 32.21435 34.95327 5357 ft 209 kts 110°
2026-05-05 05:58 32.21015 34.96942 5180 ft 202 kts 110°
2026-05-05 05:58 32.20604 34.98498 5000 ft 195 kts 113°
2026-05-05 05:58 32.20040 34.99922 4831 ft 186 kts 126°
2026-05-05 05:59 32.19310 35.01167 4729 ft 184 kts 133°
2026-05-05 05:59 32.18569 35.02378 4633 ft 184 kts 132°
2026-05-05 05:59 32.17824 35.03604 4555 ft 183 kts 132°
2026-05-05 05:59 32.17080 35.04825 4450 ft 183 kts 132°
2026-05-05 06:00 32.16340 35.06039 4334 ft 182 kts 132°
2026-05-05 06:00 32.15599 35.07255 4206 ft 182 kts 132°
2026-05-05 06:00 32.14857 35.08476 4078 ft 182 kts 132°
2026-05-05 06:00 32.14126 35.09678 3948 ft 181 kts 131°
2026-05-05 06:01 32.13391 35.10887 3826 ft 181 kts 131°
2026-05-05 06:01 32.12632 35.12075 3698 ft 179 kts 138°
2026-05-05 06:01 32.11724 35.13056 3582 ft 176 kts 148°
2026-05-05 06:01 32.10772 35.13966 3499 ft 176 kts 148°
2026-05-05 06:02 32.09822 35.14876 3437 ft 175 kts 148°
2026-05-05 06:02 32.08783 35.15545 3433 ft 166 kts 172°
2026-05-05 06:02 32.07671 35.15645 3437 ft 155 kts 196°
2026-05-05 06:02 32.06686 35.15258 3441 ft 146 kts 216°
2026-05-05 06:03 32.05918 35.14490 3442 ft 145 kts 234°
2026-05-05 06:03 32.05452 35.13460 3436 ft 142 kts 253°
2026-05-05 06:03 32.05259 35.12309 3447 ft 143 kts 259°
2026-05-05 06:03 32.05089 35.11172 3449 ft 144 kts 259°
2026-05-05 06:04 32.04913 35.10007 3442 ft 145 kts 259°
2026-05-05 06:04 32.04738 35.08844 3439 ft 143 kts 259°
2026-05-05 06:04 32.04562 35.07676 3232 ft 145 kts 258°
2026-05-05 06:04 32.04388 35.06524 3039 ft 141 kts 260°
2026-05-05 06:05 32.04216 35.05388 2850 ft 145 kts 260°
2026-05-05 06:05 32.04040 35.04224 2645 ft 145 kts 260°
2026-05-05 06:05 32.03864 35.03055 2452 ft 145 kts 257°
2026-05-05 06:05 32.03683 35.01866 2243 ft 152 kts 258°
2026-05-05 06:06 32.03500 35.00650 2046 ft 149 kts 257°
2026-05-05 06:06 32.03320 34.99463 1844 ft 146 kts 257°
2026-05-05 06:06 32.03145 34.98305 1666 ft 141 kts 257°
2026-05-05 06:06 32.02975 34.97185 1471 ft 138 kts 256°
2026-05-05 06:07 32.02805 34.96069 1279 ft 137 kts 258°
2026-05-05 06:07 32.02637 34.94963 1101 ft 137 kts 256°
2026-05-05 06:07 32.02469 34.93858 928 ft 137 kts 256°
2026-05-05 06:07 32.02302 34.92758 748 ft 136 kts 257°
2026-05-05 06:08 32.02134 34.91656 575 ft 137 kts 257°
2026-05-05 06:08 32.01960 34.90549 391 ft 136 kts 260°
2026-05-05 06:08 32.01798 34.89458 211 ft 136 kts 260°
2026-05-05 06:08 32.01621 34.88379 139 ft 127 kts 259°
2026-05-05 06:09 32.01491 34.87426 119 ft 109 kts 261°
2026-05-05 06:09 32.01426 34.86942 113 ft 27 kts 261°
2026-05-05 06:09 32.01408 34.86817 112 ft 6 kts 260°
2026-05-05 06:09 32.01400 34.86768 110 ft 6 kts 258°
2026-05-05 06:10 32.01391 34.86715 111 ft 7 kts 258°
2026-05-05 06:10 32.01376 34.86662 111 ft 7 kts 244°
2026-05-05 06:10 32.01350 34.86617 111 ft 6 kts 230°
2026-05-05 06:10 32.01315 34.86590 111 ft 6 kts 198°
2026-05-05 06:11 32.01279 34.86590 111 ft 5 kts 168°
2026-05-05 06:11 32.01254 34.86603 111 ft 3 kts 151°
2026-05-05 06:11 32.01241 34.86615 111 ft 2 kts 137°
2026-05-05 06:11 32.01240 34.86615 111 ft 0 kts 137°
2026-05-05 06:12 32.01238 34.86618 111 ft 2 kts 137°
2026-05-05 06:12 32.01229 34.86629 112 ft 2 kts 133°
2026-05-05 06:13 32.01212 34.86655 112 ft 7 kts 126°
2026-05-05 06:13 32.01177 34.86718 112 ft 10 kts 122°
2026-05-05 06:13 32.01140 34.86788 113 ft 10 kts 122°
2026-05-05 06:13 32.01101 34.86863 113 ft 11 kts 120°
2026-05-05 06:14 32.01047 34.86921 114 ft 11 kts 172°
2026-05-05 06:14 32.00978 34.86948 115 ft 11 kts 135°
2026-05-05 06:14 32.00934 34.87024 114 ft 9 kts 120°
2026-05-05 06:14 32.00887 34.87068 114 ft 9 kts 175°
2026-05-05 06:15 32.00820 34.87035 116 ft 12 kts 208°
2026-05-05 06:15 32.00735 34.86976 113 ft 16 kts 211°
2026-05-05 06:15 32.00634 34.86901 113 ft 19 kts 211°
2026-05-05 06:15 32.00539 34.86835 114 ft 16 kts 211°
2026-05-05 06:16 32.00451 34.86772 114 ft 12 kts 211°
2026-05-05 06:16 32.00393 34.86730 114 ft 8 kts 213°
2026-05-05 06:16 32.00386 34.86670 114 ft 2 kts 294°
2026-05-05 06:16 32.00395 34.86651 112 ft 1 kts 301°
2026-05-05 06:17 32.00400 34.86642 112 ft 2 kts 305°
2026-05-05 06:17 32.00406 34.86634 113 ft 0 kts 307°